Location: Croagnes
(43.9363°N, 5.3265°E)
Time: 22:27:22
(UTC+00:00)

Meteor 1-16 Rocket - Pass Details

Date: 01 October 2020
Orbit: 790 x 908 km, 81.2° (Epoch: 22 October)

Event Time Altitude Azimuth Distance (km) Brightness Sun altitude
Exits shadow 19:27:51 31° 50° (NE) 1,527 5.2 -23.7°
Drops below altitude 10° 19:31:16 10° 24° (NNE) 2,566 6.7 -24.3°
Sets 19:33:49 0° 18° (NNE) 3,495 7.4 -24.7°
